Location: Boca de Tacagua
(10.5333°N, 66.9833°W)
Time: 03:38:27
(UTC+00:00)

Cosmos 1536 - Pass Details

Date: 07 July 2022
Orbit: 536 x 556 km, 82.5° (Epoch: 14 August)

Event Time Altitude Azimuth Distance (km) Brightness Sun altitude
Exits shadow 08:25:37 40° 340° (NNW) 827 3.7 -24.1°
Drops below altitude 10° 08:28:20 10° 356° (N) 1,830 5.8 -23.5°
Sets 08:30:31 0° 360° (N) 2,725 6.8 -23.1°
